Portada
METAR-TAF:

METAR-TAF

Aeroports :

Beaver Island Airport

Beaver Island, Michigan, Estats Units d'Amèrica

latitud: 45-41-32N, longitud: 085-33-59W, altitud: 204 m

Observació

L'informe es va fer fa 16 minuts, a les 23:15 UTC
Vent 8 kt del Est/Nord-Est amb ràfegues de 23 kt
Temperatura 5°C
Humitat 93%
Pressió 1019 hPa
Visibilitat: 8.0 km
Cel cobert a una alçada de 1100 ft
pluja

METAR: KSJX 222315Z AUTO 07008G23KT 5SM RA OVC011 05/04 A3010 RMK AO2 T00480040

Hora: 19:31 (23:31 UTC)


TAF: manca

Observacions i pronòstics meteorològics de més de 4000 aeroports (METAR i TAF).

Les estacions disponibles són els punts grocs i vermells al mapa.

Posi el ratolí al punt desitjat per veure el nom de l'estació.

Feu clic per veure les observacions i els pronòstics meteorològics.

Per canviar el mapa: feu clic els botons verds amb una creu de color negre per apropar; al botó verd amb un guió per allunyar la imatge; o en les fletxes verdes per a mapes adjacents.


METAR-TAF: